Preston, Minnesota, United States (55965)
Lat: 43.67N, Lon: 92.08W
Wx Zone: MNZ095
Local Info
Past Weather Observations for Tuesday, May 26, 2015

NOTE: This archive is for the closest National Weather Service station to Preston. Information may differ from the station used for current weather conditions.

Click here for Long-term Archive

Time Weather Temperature Dewpoint Humidity Pressure Winds Precip Visibility
23:55
Overcast
Fog And Mist
57°F / 14°C 55°F / 13°C 94% 29.83 in
(1010 mb)
WNW 10.4 mph
(WNW 17 kph)
- 5SM
23:34
Overcast
57°F / 14°C 55°F / 13°C 94% 29.83 in
(1010 mb)
WNW 9.2 mph
(WNW 15 kph)
- 7SM
23:14
Overcast
57°F / 14°C 55°F / 13°C 94% 29.83 in
(1010 mb)
WNW 8.1 mph
(WNW 13 kph)
- 7SM
22:54
Overcast
57°F / 14°C 55°F / 13°C 94% 29.83 in
(1010 mb)
NW 12.7 mph
(NW 20 kph)
- 7SM
22:34
Overcast
57°F / 14°C 55°F / 13°C 94% 29.83 in
(1010 mb)
NW 6.9 mph
(NW 11 kph)
- 10SM
22:14
Overcast
57°F / 14°C 55°F / 13°C 94% 29.83 in
(1010 mb)
NW 8.1 mph
(NW 13 kph)
- 10SM
21:55
Overcast
57°F / 14°C 55°F / 13°C 94% 29.83 in
(1010 mb)
NW 6.9 mph
(NW 11 kph)
- 10SM
21:34
Overcast
57°F / 14°C 55°F / 13°C 94% 29.8 in
(1009 mb)
NW 6.9 mph
(NW 11 kph)
- 10SM
21:14
Overcast
57°F / 14°C 55°F / 13°C 94% 29.8 in
(1009 mb)
W 5.8 mph
(W 9 kph)
- 10SM
20:54
Overcast
57°F / 14°C 55°F / 13°C 94% 29.8 in
(1009 mb)
SSW 4.6 mph
(SSW 7 kph)
- 10SM
20:35
Mostly Cloudy
57°F / 14°C 55°F / 13°C 94% 29.8 in
(1009 mb)
WNW 4.6 mph
(WNW 7 kph)
- 10SM
20:14
Overcast
59°F / 15°C 55°F / 13°C 88% 29.77 in
(1008 mb)
NW 6.9 mph
(NW 11 kph)
- 10SM
19:54
Overcast
59°F / 15°C 55°F / 13°C 88% 29.77 in
(1008 mb)
NW 9.2 mph
(NW 15 kph)
- 7SM
19:34
Overcast
59°F / 15°C 55°F / 13°C 88% 29.77 in
(1008 mb)
WNW 8.1 mph
(WNW 13 kph)
- 10SM
19:15
Overcast
59°F / 15°C 55°F / 13°C 88% 29.77 in
(1008 mb)
NW 9.2 mph
(NW 15 kph)
- 10SM
18:54
Overcast
59°F / 15°C 57°F / 14°C 94% 29.77 in
(1008 mb)
NW 11.5 mph
(NW 19 kph)
- 10SM
18:34
Overcast
59°F / 15°C 57°F / 14°C 94% 29.77 in
(1008 mb)
NW 12.7 mph
(NW 20 kph)
- 10SM
18:15
Overcast
61°F / 16°C 57°F / 14°C 88% 29.77 in
(1008 mb)
NW 12.7 mph
(NW 20 kph)
- 10SM
17:54
Overcast
61°F / 16°C 57°F / 14°C 88% 29.77 in
(1008 mb)
NW 15 mph
(NW 24 kph)
- 10SM
17:34
Overcast
61°F / 16°C 57°F / 14°C 88% 29.74 in
(1007 mb)
NW 13.8 mph
(NW 22 kph)
- 10SM
17:15
Overcast
Light Rain
61°F / 16°C 57°F / 14°C 88% 29.74 in
(1007 mb)
NW 15 mph
(NW 24 kph)
- 10SM
16:54
Overcast
63°F / 17°C 57°F / 14°C 83% 29.74 in
(1007 mb)
NW 15 mph
(NW 24 kph)
- 10SM
16:34
Overcast
63°F / 17°C 59°F / 15°C 88% 29.74 in
(1007 mb)
NW 12.7 mph
(NW 20 kph)
- 10SM
16:14
Overcast
63°F / 17°C 59°F / 15°C 88% 29.74 in
(1007 mb)
NW 15 mph
(NW 24 kph)
- 10SM
15:54
Overcast
63°F / 17°C 59°F / 15°C 88% 29.74 in
(1007 mb)
NW 12.7 mph
(NW 20 kph)
0.02 in
(0.51 mm)
10SM
15:35
Overcast
61°F / 16°C 59°F / 15°C 94% 29.74 in
(1007 mb)
NW 13.8 mph
(NW 22 kph)
0.02 in
(0.51 mm)
10SM
15:14
Overcast
Light Rain
61°F / 16°C 59°F / 15°C 94% 29.74 in
(1007 mb)
NW 16.1 mph
(NW 26 kph)
0.02 in
(0.51 mm)
4SM
14:55
Overcast
Light Rain
61°F / 16°C 59°F / 15°C 94% 29.71 in
(1006 mb)
NW 13.8 mph
(NW 22 kph)
0.06 in
(1.52 mm)
2 1/2SM
14:35
Overcast
Light Rain
61°F / 16°C 59°F / 15°C 94% 29.71 in
(1006 mb)
NW 17.3 mph
(NW 28 kph)
0.04 in
(1.02 mm)
2SM
14:15
Overcast
Light Rain
61°F / 16°C 59°F / 15°C 94% 29.71 in
(1006 mb)
NW 17.3 mph
(NW 28 kph)
0.02 in
(0.51 mm)
2 1/2SM
13:54
Overcast
Rain
59°F / 15°C 57°F / 14°C 94% 29.71 in
(1006 mb)
NW 15 mph
(NW 24 kph)
0.18 in
(4.57 mm)
2SM
13:34
Overcast
Rain
61°F / 16°C 59°F / 15°C 94% 29.71 in
(1006 mb)
NW 13.8 mph
(NW 22 kph)
0.13 in
(3.30 mm)
1 1/2SM
13:15
Overcast
Rain
59°F / 15°C 59°F / 15°C 100% 29.74 in
(1007 mb)
NW 13.8 mph
(NW 22 kph)
0.05 in
(1.27 mm)
2SM
12:54
Overcast
Light Rain
61°F / 16°C 59°F / 15°C 94% 29.74 in
(1007 mb)
NNW 11.5 mph
(NNW 19 kph)
0.07 in
(1.78 mm)
2 1/2SM
12:34
Overcast
Light Rain
61°F / 16°C 59°F / 15°C 94% 29.74 in
(1007 mb)
NNW 11.5 mph
(NNW 19 kph)
0.03 in
(0.76 mm)
2SM
12:14
Overcast
Light Rain
61°F / 16°C 59°F / 15°C 94% 29.74 in
(1007 mb)
N 11.5 mph
(N 19 kph)
0.01 in
(0.25 mm)
3SM
11:55
Overcast
Light Rain
61°F / 16°C 59°F / 15°C 94% 29.74 in
(1007 mb)
N 10.4 mph
(N 17 kph)
0.05 in
(1.27 mm)
3SM
11:34
Overcast
Light Rain
61°F / 16°C 59°F / 15°C 94% 29.74 in
(1007 mb)
N 8.1 mph
(N 13 kph)
0.03 in
(0.76 mm)
3SM
11:14
Overcast
Light Rain
61°F / 16°C 59°F / 15°C 94% 29.74 in
(1007 mb)
N 9.2 mph
(N 15 kph)
0.01 in
(0.25 mm)
4SM
10:54
Overcast
Light Rain
61°F / 16°C 59°F / 15°C 94% 29.74 in
(1007 mb)
N 8.1 mph
(N 13 kph)
0.03 in
(0.76 mm)
7SM
10:35
Overcast
Light Rain
59°F / 15°C 59°F / 15°C 100% 29.77 in
(1008 mb)
N 6.9 mph
(N 11 kph)
0.01 in
(0.25 mm)
7SM
10:14
Overcast
Light Rain
59°F / 15°C 57°F / 14°C 94% 29.77 in
(1008 mb)
N 4.6 mph
(N 7 kph)
0.01 in
(0.25 mm)
5SM
09:54
Overcast
Rain
59°F / 15°C 57°F / 14°C 94% 29.77 in
(1008 mb)
NNE 5.8 mph
(NNE 9 kph)
0.06 in
(1.52 mm)
5SM
09:35
Overcast
Light Rain
59°F / 15°C 57°F / 14°C 94% 29.8 in
(1009 mb)
Calm 0.04 in
(1.02 mm)
4SM
09:14
Overcast
Rain
59°F / 15°C 57°F / 14°C 94% 29.8 in
(1009 mb)
N 5.8 mph
(N 9 kph)
0.02 in
(0.51 mm)
4SM
08:54
Overcast
Rain
59°F / 15°C 57°F / 14°C 94% 29.83 in
(1010 mb)
Calm 0.05 in
(1.27 mm)
4SM
08:34
Overcast
Light Rain
59°F / 15°C 57°F / 14°C 94% 29.83 in
(1010 mb)
Calm 0.03 in
(0.76 mm)
7SM
08:15
Overcast
Light Rain
59°F / 15°C 57°F / 14°C 94% 29.83 in
(1010 mb)
ESE 5.8 mph
(ESE 9 kph)
0.02 in
(0.51 mm)
7SM
07:55
Overcast
59°F / 15°C 57°F / 14°C 94% 29.83 in
(1010 mb)
SSW 5.8 mph
(SSW 9 kph)
0.02 in
(0.51 mm)
7SM
07:34
Overcast
Light Rain
57°F / 14°C 55°F / 13°C 94% 29.83 in
(1010 mb)
SW 4.6 mph
(SW 7 kph)
- 10SM
07:14
Overcast
Thunder Storms
57°F / 14°C 55°F / 13°C 94% 29.83 in
(1010 mb)
S 6.9 mph
(S 11 kph)
- 10SM
06:55
Overcast
59°F / 15°C 55°F / 13°C 88% 29.83 in
(1010 mb)
SW 5.8 mph
(SW 9 kph)
- 10SM
06:34
Overcast
Light Rain
57°F / 14°C 55°F / 13°C 94% 29.8 in
(1009 mb)
N 8.1 mph
(N 13 kph)
- 10SM
06:14
Overcast
Light Rain
57°F / 14°C 55°F / 13°C 94% 29.83 in
(1010 mb)
Calm - 7SM
05:55
Partly Cloudy
57°F / 14°C 55°F / 13°C 94% 29.83 in
(1010 mb)
Calm - 10SM
05:34
Clear
57°F / 14°C 55°F / 13°C 94% 29.83 in
(1010 mb)
Calm - 10SM
05:14
Clear
55°F / 13°C 54°F / 12°C 94% 29.83 in
(1010 mb)
Calm - 10SM
04:54
Clear
55°F / 13°C 54°F / 12°C 94% 29.83 in
(1010 mb)
Calm - 10SM
04:35
Clear
55°F / 13°C 54°F / 12°C 94% 29.83 in
(1010 mb)
Calm - 10SM
04:14
Clear
57°F / 14°C 54°F / 12°C 88% 29.83 in
(1010 mb)
S 3.5 mph
(S 6 kph)
- 10SM
03:55
Clear
57°F / 14°C 55°F / 13°C 94% 29.8 in
(1009 mb)
Calm - 10SM
03:34
Clear
55°F / 13°C 55°F / 13°C 100% 29.8 in
(1009 mb)
S 5.8 mph
(S 9 kph)
- 10SM
03:15
Clear
55°F / 13°C 54°F / 12°C 94% 29.8 in
(1009 mb)
SSE 5.8 mph
(SSE 9 kph)
- 10SM
02:54
Clear
59°F / 15°C 55°F / 13°C 88% 29.8 in
(1009 mb)
SSE 3.5 mph
(SSE 6 kph)
- 10SM
02:35
Clear
59°F / 15°C 55°F / 13°C 88% 29.8 in
(1009 mb)
Calm - 10SM
02:14
Clear
59°F / 15°C 55°F / 13°C 88% 29.8 in
(1009 mb)
Calm - 10SM
01:54
Partly Cloudy
57°F / 14°C 55°F / 13°C 94% 29.83 in
(1010 mb)
W 11.5 mph
(W 19 kph)
- 10SM
01:34
Partly Cloudy
61°F / 16°C 55°F / 13°C 83% 29.8 in
(1009 mb)
SSE 3.5 mph
(SSE 6 kph)
- 10SM
01:15
Partly Cloudy
59°F / 15°C 55°F / 13°C 88% 29.83 in
(1010 mb)
Calm - 10SM
00:54
Overcast
Light Rain
61°F / 16°C 55°F / 13°C 83% 29.83 in
(1010 mb)
Calm 0.06 in
(1.52 mm)
10SM
00:34
Overcast
Light Rain
61°F / 16°C 55°F / 13°C 83% 29.86 in
(1011 mb)
S 17.3 mph
(S 28 kph)
0.05 in
(1.27 mm)
10SM
00:15
Overcast
Rain
61°F / 16°C 57°F / 14°C 88% 29.89 in
(1012 mb)
SW 16.1 mph
(SW 26 kph)
0.02 in
(0.51 mm)
7SM
Time Weather Temperature Dewpoint Humidity Pressure Winds Precip Visibility


Weather for websites

WeatherForYou.com, LLC is not responsible for any damages or problems caused by this service. Current weather conditions are obtained from the closest station including government and personal stations which may have varying degrees of accuracy. Weather forecasts are derived from the NOAA NDFD. Like all things, this site belongs to Jesus Christ... He just trusts us to maintain it. If you have any questions or comments email webmaster@weatherforyou.com

Copyright © 2015, WeatherForYou.com LLC. All rights reserved.